Tracking 23722 objects as of 15-Oct-2021
HD Live streaming from Space Station
objects crossing your sky now

CZ-2D DEB

Track CZ-2D DEB now!
10-day predictions


NORAD ID: 44610
Int'l Code: 2017-060C
Perigee: 611.8 km
Apogee: 650.8 km
Inclination: 98.1 °
Period: 97.2 minutes
Semi major axis: 7002 km
RCS: Unknown
Launch date: October 9, 2017
Source: People's Republic of China (PRC)
Launch site: Jiuquan Satellite Launch Center, China (JSC)

Note: This is SATELLITE DEBRIS
aabbcc
Your satellite tracking list
Your tracking list is empty




NASA's NSSDC Master Catalog

Two Line Element Set (TLE):
1 44610U 17060C   21288.28802882  .00000808  00000-0  10927-3 0  9996
2 44610  98.1208  39.4744 0027841 293.8438  65.9857 14.81628243214854
Source of the keplerian elements: AFSPC